DW7888 Weather Reports


time (UTC)temp
C
wind
direction
speed
KPH
gust
KPH
rain 1hr
cm
rain 24hr
cm
rain mn
cm
humidity
%
barometer
mb
20260905235014 24 308 0.0 0.0 0.00 2.41 2.41 92 1011.2
20260905234508 24 308 0.0 0.0 0.00 2.41 2.41 92 1011.3
20260905234008 24 308 0.0 0.0 0.00 2.41 2.41 92 1011.3
20260905233511 24 308 0.0 0.0 0.00 2.41 2.41 92 1011.1
20260905233006 24 308 0.0 0.0 0.00 2.41 2.41 92 1011.0
20260905232512 24 308 0.0 0.0 0.00 2.44 2.41 91 1010.8
20260905232014 24 308 0.0 0.0 0.00 2.44 2.41 91 1010.8
20260905231506 24 308 0.0 0.0 0.00 2.44 2.41 90 1011.0
20260905231007 24 308 0.0 0.0 0.00 2.44 2.41 89 1011.2
20260905230511 24 308 0.0 0.0 0.00 2.44 2.41 89 1011.3
20260905230004 24 308 0.0 0.0 0.00 2.46 2.41 89 1011.2
20260905225508 25 308 0.0 0.0 0.00 2.67 2.41 89 1011.2
20260905225013 25 308 0.0 0.0 0.00 2.67 2.41 89 1011.2
20260905224504 25 308 0.0 3.2 0.00 2.67 2.41 88 1011.2
20260905224009 25 308 0.0 4.8 0.00 2.67 2.41 87 1011.3
20260905223515 25 338 0.0 4.8 0.00 2.67 2.41 87 1011.2
20260905223015 25 334 0.0 4.8 0.00 2.67 2.41 87 1011.2
20260905222509 25 348 0.0 4.8 0.00 2.67 2.41 87 1011.2
20260905222022 25 325 0.0 1.6 0.00 2.67 2.41 87 1011.2
20260905221510 25 350 0.0 0.0 0.00 2.67 2.41 86 1011.1
20260905221012 25 350 0.0 0.0 0.00 2.67 2.41 86 1011.1
20260905220515 25 350 0.0 0.0 0.00 2.67 2.41 87 1011.2
20260905220007 25 350 0.0 0.0 0.00 2.67 2.41 87 1011.1
20260905215513 25 350 0.0 0.0 0.00 2.84 2.41 86 1011.2
20260905215015 25 350 0.0 0.0 0.00 2.92 2.41 88 1011.1
20260905214507 25 350 0.0 0.0 0.00 2.92 2.41 88 1011.3
20260905214012 24 350 0.0 0.0 0.00 2.92 2.41 88 1011.3
20260905213516 24 350 0.0 0.0 0.00 2.92 2.41 88 1011.3
20260905213008 24 350 0.0 0.0 0.00 2.92 2.41 88 1011.3
20260905212510 24 350 0.0 0.0 0.00 2.92 2.41 87 1011.3
20260905212021 24 309 0.0 0.0 0.00 2.92 2.41 87 1011.2
20260905211522 24 309 0.0 0.0 0.00 2.92 2.41 88 1011.2
20260905211012 25 275 0.0 0.0 0.00 2.92 2.41 88 1011.2
20260905210518 25 275 0.0 0.0 0.00 2.92 2.41 89 1011.3
20260905210011 24 275 0.0 1.6 0.00 2.92 2.41 88 1011.3
20260905205513 24 162 0.0 1.6 0.00 2.92 2.41 88 1011.4
20260905205016 24 175 0.0 1.6 0.00 2.92 2.41 88 1011.4
20260905204511 24 42 0.0 1.6 0.00 2.92 2.41 88 1011.4
20260905204015 24 42 0.0 1.6 0.00 2.92 2.41 90 1011.3
20260905203516 24 123 0.0 3.2 0.00 2.92 2.41 91 1011.4
20260905203012 24 123 0.0 3.2 0.00 2.92 2.41 92 1011.4
20260905202513 24 159 0.0 3.2 0.00 2.92 2.41 93 1011.4
20260905202014 24 198 0.0 4.8 0.00 2.92 2.41 94 1011.4
20260905201517 23 167 0.0 4.8 0.03 2.92 2.41 94 1011.3
20260905201015 23 83 0.0 3.2 0.03 2.92 2.41 94 1011.5
20260905200516 23 59 0.0 3.2 0.03 2.92 2.41 94 1011.4
20260905200015 23 142 0.0 3.2 0.08 2.92 2.41 94 1011.4
20260905195515 23 209 0.0 6.4 0.13 2.92 2.41 94 1011.3
20260905195018 23 17 0.0 6.4 0.13 2.92 2.41 95 1011.5
20260905194516 23 299 1.6 6.4 0.13 2.92 2.41 95 1011.5
20260905194016 23 323 1.6 4.8 0.13 2.92 2.41 94 1011.6
20260905193515 23 309 0.0 0.0 0.15 2.92 2.41 95 1011.6
20260905193018 23 309 0.0 0.0 0.20 2.92 2.41 95 1011.6
20260905192514 23 306 0.0 0.0 0.20 2.92 2.41 95 1011.6
20260905192018 23 339 0.0 0.0 0.20 2.92 2.41 94 1011.6
20260905191519 23 76 0.0 0.0 0.18 2.90 2.39 94 1011.5
20260905191018 23 148 0.0 0.0 0.18 2.90 2.39 94 1011.6
20260905190514 23 148 0.0 0.0 0.18 2.90 2.39 94 1012.1
20260905190034 23 271 0.0 0.0 0.13 2.84 2.34 94 1012.2
20260905185513 23 271 0.0 0.0 0.08 2.79 2.29 94 1012.4
20260905185006 23 271 0.0 0.0 0.08 2.79 2.29 94 1012.4
20260905184503 23 323 0.0 0.0 0.08 2.79 2.29 94 1012.8
20260905184003 23 323 0.0 0.0 0.08 2.79 2.29 93 1012.4
20260905183508 23 331 0.0 0.0 0.05 2.77 2.26 93 1012.1
20260905183002 23 30 0.0 1.6 0.00 2.72 2.21 92 1012.0
20260905182502 23 207 0.0 1.6 0.00 2.72 2.21 92 1012.1
20260905182009 23 161 0.0 4.8 0.00 2.72 2.21 93 1012.0
20260905181503 23 207 0.0 4.8 0.00 2.72 2.21 93 1012.0
20260905181003 23 143 0.0 4.8 0.00 2.72 2.21 93 1012.1
20260905180505 23 144 0.0 4.8 0.00 2.72 2.21 92 1012.1
20260905180004 23 18 0.0 3.2 0.00 2.72 2.21 93 1012.4
20260905175503 23 102 0.0 3.2 0.03 2.72 2.21 93 1012.3
20260905175011 23 120 0.0 6.4 0.08 2.72 2.21 93 1012.4
20260905174502 23 175 0.0 6.4 0.13 2.72 2.21 94 1012.5
20260905174004 23 201 0.0 6.4 0.18 2.72 2.21 94 1012.7
20260905173508 23 144 0.0 6.4 0.23 2.72 2.21 95 1012.7
20260905173007 22 178 0.0 6.4 0.25 2.72 2.21 94 1012.9
20260905172503 23 174 0.0 4.8 0.58 2.72 2.21 95 1012.8
20260905172011 22 148 1.6 4.8 1.19 2.72 2.21 94 1012.5
20260905171511 22 64 0.0 6.4 1.32 2.72 2.21 94 1012.5
20260905171013 22 31 0.0 6.4 1.80 2.72 2.21 94 1012.6
20260905170510 23 21 1.6 6.4 2.21 2.72 2.21 95 1012.5
20260905170031 23 332 0.0 3.2 2.21 2.72 2.21 94 1012.9
20260905165506 23 348 0.0 3.2 2.18 2.67 2.18 94 1013.4
20260905165010 23 347 0.0 3.2 2.13 2.64 2.13 94 1013.8
20260905164503 23 347 0.0 3.2 2.08 2.59 2.08 93 1014.0
20260905164005 23 350 0.0 1.6 2.03 2.54 2.03 93 1014.3
20260905163511 23 335 0.0 1.6 1.98 2.49 1.98 93 1014.1
20260905163004 23 335 0.0 8.0 1.96 2.46 1.96 92 1014.0
20260905162508 23 333 0.0 8.0 1.63 2.13 1.63 92 1014.2
20260905162015 24 343 1.6 6.4 1.02 1.52 1.02 91 1014.2
20260905161505 25 341 0.0 4.8 0.89 1.40 0.89 89 1014.3
20260905161007 26 331 1.6 6.4 0.41 0.91 0.41 86 1014.0
20260905160512 26 350 0.0 6.4 0.00 0.51 0.00 82 1014.1
20260905160004 26 331 0.0 6.4 0.00 0.51 0.00 80 1013.6
20260905155506 27 328 0.0 6.4 0.00 0.51 0.00 76 1013.2
20260905155011 27 296 1.6 6.4 0.00 0.51 0.00 75 1012.9
20260905154504 27 279 1.6 6.4 0.00 0.51 0.00 76 1012.8
20260905154010 27 21 0.0 8.0 0.00 0.51 0.00 75 1012.4
20260905153513 27 55 0.0 8.0 0.00 0.51 0.00 77 1012.5
20260905153005 27 360 0.0 9.7 0.00 0.51 0.00 78 1012.6
20260905152508 27 30 0.0 9.7 0.00 0.51 0.00 76 1012.7
20260905152015 27 24 1.6 8.0 0.00 0.51 0.00 76 1012.8
20260905151505 27 355 1.6 8.0 0.00 0.51 0.00 76 1012.8
20260905151010 28 321 0.0 8.0 0.00 0.51 0.00 77 1012.8
20260905150513 27 5 0.0 8.0 0.00 0.51 0.00 76 1012.8
20260905150006 28 49 1.6 8.0 0.00 0.51 0.00 73 1012.8
20260905145511 28 329 0.0 8.0 0.00 0.51 0.00 75 1012.9
20260905145019 28 355 1.6 8.0 0.00 0.51 0.00 74 1012.8
20260905144508 27 277 0.0 3.2 0.00 0.51 0.00 76 1012.7
20260905144009 27 306 0.0 3.2 0.00 0.51 0.00 75 1012.8
20260905143515 27 67 0.0 1.6 0.00 0.51 0.00 77 1012.7
20260905143009 27 52 0.0 6.4 0.00 0.51 0.00 77 1012.7
20260905142512 27 30 0.0 6.4 0.00 0.51 0.00 79 1012.8
20260905142019 27 272 0.0 0.0 0.00 0.51 0.00 80 1012.7
20260905141510 26 66 0.0 0.0 0.00 0.51 0.00 83 1012.7
20260905141010 26 52 0.0 0.0 0.00 0.51 0.00 83 1012.6
20260905140517 26 333 0.0 0.0 0.00 0.51 0.00 85 1012.4
20260905140011 25 24 0.0 1.6 0.00 0.51 0.00 87 1012.3
20260905135512 25 88 0.0 1.6 0.00 0.51 0.00 87 1012.4
20260905135016 25 42 0.0 0.0 0.00 0.51 0.00 90 1012.3
20260905134512 24 347 0.0 0.0 0.00 0.51 0.00 90 1012.3
20260905134013 24 39 0.0 0.0 0.00 0.51 0.00 91 1012.1
20260905133519 23 44 0.0 0.0 0.00 0.51 0.00 92 1012.2
20260905133010 23 19 0.0 0.0 0.00 0.51 0.00 93 1012.2
20260905132512 23 41 0.0 0.0 0.00 0.51 0.00 94 1012.2
20260905132005 23 27 0.0 0.0 0.00 0.51 0.00 95 1012.2
20260905131513 22 351 0.0 0.0 0.00 0.51 0.00 96 1012.2
20260905131016 22 301 0.0 0.0 0.00 0.51 0.00 96 1012.2
20260905130503 22 39 0.0 0.0 0.00 0.51 0.00 96 1012.0
20260905130018 22 315 0.0 0.0 0.00 0.51 0.00 97 1011.9
20260905125517 22 315 0.0 0.0 0.00 0.51 0.00 97 1011.9
20260905125006 22 315 0.0 0.0 0.00 0.51 0.00 97 1011.9
20260905124529 22 315 0.0 0.0 0.00 0.51 0.00 97 1012.0
20260905124018 22 315 0.0 0.0 0.00 0.51 0.00 97 1012.1
20260905123505 22 315 0.0 0.0 0.00 0.51 0.00 97 1012.2
20260905123031 21 315 0.0 0.0 0.00 0.51 0.00 97 1012.2
20260905122520 21 196 0.0 0.0 0.00 0.51 0.00 97 1012.2
20260905122006 21 196 0.0 0.0 0.00 0.51 0.00 97 1012.2
20260905121519 21 196 0.0 0.0 0.00 0.51 0.00 97 1012.1
20260905121014 21 196 0.0 0.0 0.00 0.51 0.00 97 1012.1
20260905120508 21 196 0.0 0.0 0.00 0.51 0.00 97 1012.1
20260905120018 21 196 0.0 0.0 0.00 0.51 0.00 97 1012.1
20260905115516 21 196 0.0 0.0 0.00 0.51 0.00 97 1012.0
20260905115008 21 196 0.0 0.0 0.00 0.51 0.00 97 1012.1
20260905114522 21 196 0.0 0.0 0.00 0.51 0.00 97 1012.0
20260905114015 21 355 0.0 0.0 0.00 0.51 0.00 97 1012.0
20260905113512 21 355 0.0 0.0 0.00 0.51 0.00 97 1012.0
20260905113019 21 355 0.0 0.0 0.00 0.51 0.00 97 1012.0
20260905112516 21 355 0.0 0.0 0.00 0.51 0.00 97 1012.0
20260905112008 20 355 0.0 0.0 0.00 0.51 0.00 97 1011.8
20260905111523 20 355 0.0 0.0 0.00 0.51 0.00 97 1011.9
20260905111018 20 355 0.0 0.0 0.00 0.51 0.00 97 1011.9
20260905110513 20 355 0.0 0.0 0.00 0.51 0.00 96 1011.9
20260905110022 20 355 0.0 0.0 0.00 0.51 0.00 96 1011.9
20260905105516 20 355 0.0 0.0 0.00 0.51 0.00 96 1011.9
20260905105008 20 355 0.0 0.0 0.00 0.51 0.00 96 1011.9
20260905104535 20 355 0.0 0.0 0.00 0.51 0.00 96 1011.8
20260905104015 21 355 0.0 0.0 0.00 0.51 0.00 96 1011.7
20260905103509 21 355 0.0 0.0 0.00 0.51 0.00 96 1011.7
20260905103029 21 355 0.0 0.0 0.00 0.51 0.00 96 1011.5
20260905102519 21 355 0.0 0.0 0.00 0.51 0.00 96 1011.6
20260905102010 21 355 0.0 0.0 0.00 0.51 0.00 96 1011.5
20260905101526 21 355 0.0 0.0 0.00 0.51 0.00 96 1011.4
20260905101017 21 355 0.0 0.0 0.00 0.51 0.00 96 1011.3
20260905100513 21 355 0.0 0.0 0.00 0.51 0.00 96 1011.3
20260905100029 21 355 0.0 0.0 0.00 0.51 0.00 96 1011.3
20260905095515 21 355 0.0 0.0 0.00 0.51 0.00 96 1011.3
20260905095011 21 355 0.0 0.0 0.00 0.51 0.00 96 1011.3
20260905094528 21 355 0.0 0.0 0.00 0.51 0.00 96 1011.2
20260905094007 21 355 0.0 0.0 0.00 0.51 0.00 96 1011.3
20260905093511 21 355 0.0 0.0 0.00 0.51 0.00 96 1011.2
20260905093003 21 355 0.0 0.0 0.00 0.51 0.00 96 1011.3
20260905092519 21 355 0.0 0.0 0.00 0.51 0.00 96 1011.3
20260905092012 21 355 0.0 0.0 0.00 0.51 0.00 96 1011.3
20260905091502 21 355 0.0 0.0 0.00 0.51 0.00 96 1011.2
20260905091010 21 355 0.0 0.0 0.00 0.51 0.00 96 1011.1
20260905090513 21 355 0.0 0.0 0.00 0.51 0.00 96 1011.1
20260905090007 21 355 0.0 0.0 0.00 0.51 0.00 96 1011.1
20260905085508 21 355 0.0 0.0 0.00 0.51 0.00 96 1011.2
20260905085016 21 351 0.0 0.0 0.00 0.51 0.00 96 1011.2
20260905084506 21 351 0.0 0.0 0.00 0.51 0.00 96 1011.2
20260905084009 21 351 0.0 0.0 0.00 0.51 0.00 96 1011.2
20260905083513 21 351 0.0 0.0 0.00 0.51 0.00 96 1011.2
20260905083006 21 351 0.0 0.0 0.00 0.51 0.00 96 1011.3
20260905082510 21 351 0.0 0.0 0.00 0.51 0.00 96 1011.3
20260905082012 21 351 0.0 0.0 0.00 0.51 0.00 96 1011.4
20260905081504 21 351 0.0 0.0 0.00 0.51 0.00 96 1011.3
20260905081013 21 351 0.0 0.0 0.00 0.51 0.00 96 1011.3
20260905080501 21 351 0.0 0.0 0.00 0.51 0.00 96 1011.5
20260905080015 21 351 0.0 0.0 0.00 0.51 0.00 96 1011.5
20260905075511 21 351 0.0 0.0 0.00 0.51 0.00 96 1011.6
20260905075002 21 351 0.0 0.0 0.00 0.51 0.00 96 1011.5
20260905074508 21 351 0.0 0.0 0.00 0.51 0.00 96 1011.6
20260905074012 21 351 0.0 0.0 0.00 0.51 0.00 96 1011.7
20260905073502 21 351 0.0 0.0 0.00 0.51 0.00 96 1011.7
20260905073024 21 351 0.0 0.0 0.00 0.51 0.00 96 1011.7
20260905072513 21 351 0.0 0.0 0.00 0.51 0.00 96 1011.8
20260905072003 21 351 0.0 0.0 0.00 0.51 0.00 96 1011.8
20260905071508 21 351 0.0 0.0 0.00 0.51 0.00 96 1011.9
20260905071011 21 351 0.0 0.0 0.00 0.51 0.00 96 1011.9
20260905070507 21 351 0.0 0.0 0.00 0.51 0.00 96 1012.0
20260905070011 21 351 0.0 0.0 0.00 0.51 0.00 96 1012.0
20260905065513 21 351 0.0 0.0 0.00 0.51 0.00 96 1012.0
20260905065003 21 351 0.0 0.0 0.00 0.51 0.00 96 1012.2
20260905064515 21 351 0.0 0.0 0.00 0.51 0.00 96 1012.2
20260905064015 21 351 0.0 0.0 0.00 0.51 0.00 96 1012.2
20260905063510 21 351 0.0 0.0 0.00 0.51 0.00 96 1012.1
20260905063014 21 351 0.0 0.0 0.00 0.51 0.00 96 1012.1
20260905062513 21 351 0.0 0.0 0.00 0.51 0.00 95 1012.2
20260905062009 21 351 0.0 0.0 0.00 0.51 0.00 95 1012.2
20260905061512 21 351 0.0 0.0 0.00 0.51 0.00 95 1012.4
20260905061015 21 351 0.0 0.0 0.00 0.51 0.00 96 1012.5
20260905060504 21 351 0.0 0.0 0.00 0.51 0.00 95 1012.5
20260905060014 21 351 0.0 0.0 0.00 0.51 0.00 95 1012.6
20260905055516 21 351 0.0 0.0 0.00 0.51 0.00 95 1012.7
20260905055007 21 351 0.0 0.0 0.00 0.51 0.00 95 1012.7
20260905054518 21 351 0.0 0.0 0.00 0.51 0.00 95 1012.8
20260905054013 21 351 0.0 0.0 0.00 0.51 0.00 95 1012.8
20260905053506 21 351 0.0 0.0 0.00 0.51 0.00 95 1012.7
20260905053021 21 351 0.0 0.0 0.00 0.51 0.00 95 1012.8
20260905052514 21 351 0.0 0.0 0.00 0.51 0.00 95 1013.0
20260905052006 21 351 0.0 0.0 0.00 0.51 0.00 95 1013.2
20260905051523 21 351 0.0 0.0 0.00 0.51 0.00 95 1013.2
20260905051013 21 351 0.0 0.0 0.00 0.51 0.00 95 1013.3
20260905050506 21 351 0.0 0.0 0.00 0.51 0.00 95 1013.4
20260905050022 21 351 0.0 0.0 0.00 0.51 0.00 95 1013.5
20260905045513 21 351 0.0 0.0 0.00 0.51 0.00 95 1013.6
20260905045011 21 351 0.0 0.0 0.00 0.51 0.00 95 1013.7
20260905044526 21 351 0.0 0.0 0.00 0.51 0.00 95 1013.7
20260905044019 21 351 0.0 0.0 0.00 0.51 0.00 95 1013.8
20260905043507 21 351 0.0 0.0 0.00 0.51 0.00 95 1013.8
20260905043023 21 351 0.0 0.0 0.00 0.51 0.00 95 1013.9
20260905042518 21 351 0.0 0.0 0.00 0.51 0.00 95 1013.9
20260905042010 22 351 0.0 0.0 0.00 0.51 0.00 95 1013.9
20260905041526 22 351 0.0 0.0 0.00 0.51 0.00 95 1013.9
20260905041018 22 351 0.0 0.0 0.00 0.51 0.00 95 1013.9
20260905040509 22 351 0.0 0.0 0.00 0.51 0.00 95 1014.1
20260905040030 22 351 0.0 0.0 0.00 0.51 0.00 95 1014.0
20260905035519 22 351 0.0 0.0 0.00 0.51 0.51 95 1014.1
20260905035011 22 351 0.0 0.0 0.00 0.51 0.51 95 1014.0
20260905034529 22 351 0.0 0.0 0.00 0.51 0.51 95 1014.0
20260905034015 22 351 0.0 0.0 0.00 0.51 0.51 95 1014.1
20260905033508 22 351 0.0 0.0 0.00 0.51 0.51 95 1014.1
20260905033023 22 351 0.0 3.2 0.00 0.51 0.51 95 1014.1
20260905032518 22 351 0.0 3.2 0.00 0.51 0.51 95 1014.1
20260905032010 22 351 0.0 3.2 0.00 0.51 0.51 95 1014.1
20260905031524 22 46 0.0 3.2 0.00 0.51 0.51 95 1014.0
20260905031016 22 67 0.0 3.2 0.00 0.51 0.51 95 1014.0
20260905030511 22 63 0.0 6.4 0.00 0.51 0.51 95 1013.8
20260905030029 22 280 0.0 6.4 0.00 0.51 0.51 95 1013.7
20260905025518 22 67 0.0 3.2 0.00 0.51 0.51 95 1013.6
20260905025013 22 187 0.0 3.2 0.00 0.51 0.51 95 1013.6
20260905024527 22 73 0.0 0.0 0.00 0.51 0.51 96 1013.8
20260905024020 22 96 0.0 0.0 0.00 0.51 0.51 95 1013.9
20260905023511 22 11 0.0 0.0 0.00 0.51 0.51 95 1014.0
20260905023034 22 11 0.0 0.0 0.00 0.51 0.51 95 1014.1
20260905022512 22 11 0.0 0.0 0.00 0.51 0.51 95 1014.1
20260905022015 22 345 0.0 0.0 0.00 0.51 0.51 95 1014.4
20260905021535 22 345 0.0 0.0 0.00 0.51 0.51 95 1014.3
20260905021010 22 345 0.0 0.0 0.00 0.51 0.51 95 1014.3
20260905020513 22 345 0.0 0.0 0.00 0.51 0.51 95 1014.2
20260905020030 22 345 0.0 0.0 0.00 0.51 0.51 95 1014.3
20260905015507 22 61 0.0 0.0 0.00 0.51 0.51 95 1014.2
20260905015013 22 346 0.0 0.0 0.00 0.51 0.51 95 1014.1
20260905014535 22 306 0.0 0.0 0.00 0.51 0.51 95 1014.2
20260905014012 22 306 0.0 0.0 0.00 0.51 0.51 95 1014.2
20260905013519 22 177 0.0 0.0 0.00 0.51 0.51 95 1014.2
20260905013030 22 177 0.0 0.0 0.00 0.51 0.51 95 1014.1
20260905012511 22 177 0.0 0.0 0.00 0.51 0.51 95 1014.0
20260905012017 22 177 0.0 0.0 0.00 0.51 0.51 95 1014.0
20260905011531 22 177 0.0 0.0 0.00 0.51 0.51 95 1013.9
20260905011010 22 177 0.0 0.0 0.00 0.51 0.51 95 1013.6
20260905010516 22 177 0.0 0.0 0.00 0.51 0.51 95 1013.3
20260905010033 22 177 0.0 0.0 0.00 0.51 0.51 95 1013.1
20260905005509 22 177 0.0 0.0 0.00 0.51 0.51 95 1013.0
20260905005016 22 177 0.0 0.0 0.00 0.51 0.51 95 1013.0
20260905004510 22 177 0.0 3.2 0.00 0.51 0.51 95 1013.0
20260905004012 22 177 0.0 3.2 0.00 0.51 0.51 95 1012.8
20260905003503 22 57 0.0 1.6 0.00 0.51 0.51 94 1013.1
20260905003016 22 57 0.0 1.6 0.00 0.51 0.51 94 1013.3
20260905002510 22 57 0.0 3.2 0.03 0.51 0.51 94 1012.7
20260905002003 22 57 0.0 3.2 0.03 0.51 0.51 94 1012.7
20260905001509 22 344 0.0 1.6 0.03 0.51 0.51 94 1012.6
20260905001014 22 344 0.0 1.6 0.03 0.51 0.51 94 1012.0
20260905000503 22 344 0.0 1.6 0.03 0.51 0.51 94 1011.9
20260905000026 22 344 0.0 3.2 0.05 0.51 0.51 94 1011.9
20260904235518 22 344 0.0 4.8 0.28 0.51 0.51 94 1012.2